When you browse on this site, cookies collect data to enhance your experience and personalize the content and advertising you see.
Visit our Privacy Policy to learn more. By continuing to use the site, you agree to this use of cookies and data.
  • In France
  • List of Countries
  • For 7 days
  • Water Temperature
  • Satellite Maps
  • Weather Map
  • Weather Widgets
  • user-avatar
    Login

    Hourly Weather Angahuan

    Today, 20 July, Saturday

    Time Temperature Precipitation Wind Pressure Humidity
    00:00 +10°C° 0.2 mm 1 mps 547 mmHg 91%
    01:00 +8°C° 0.2 mm 0 mps 547 mmHg 91%
    02:00 +8°C° 0.2 mm 0 mps 547 mmHg 91%
    03:00 +8°C° 0.2 mm 0 mps 546 mmHg 92%
    04:00 +8°C° 0.2 mm 0 mps 546 mmHg 92%
    05:00 +9°C° 0.2 mm 1 mps 546 mmHg 93%
    06:00 +10°C° 0.1 mm 1 mps 547 mmHg 90%
    07:00 +11°C° 0.1 mm 1 mps 548 mmHg 88%
    08:00 +12°C° 0.1 mm 1 mps 549 mmHg 86%
    09:00 +14°C° 0.5 mm 1 mps 549 mmHg 84%
    10:00 +15°C° 0.5 mm 1 mps 550 mmHg 82%
    11:00 +16°C° 0.5 mm 1 mps 550 mmHg 80%
    12:00 +15°C° 2 mm 1 mps 549 mmHg 83%
    13:00 +15°C° 2 mm 1 mps 548 mmHg 87%
    14:00 +14°C° 2 mm 1 mps 547 mmHg 91%
    15:00 +13°C° 2.5 mm 1 mps 547 mmHg 92%
    16:00 +12°C° 2.5 mm 0 mps 546 mmHg 94%
    17:00 +11°C° 2.5 mm 0 mps 546 mmHg 96%
    18:00 +10°C° 2.4 mm 0 mps 546 mmHg 96%
    19:00 +10°C° 2.4 mm 0 mps 546 mmHg 96%
    20:00 +9°C° 2.4 mm 0 mps 547 mmHg 96%
    21:00 +9°C° 1.1 mm 0 mps 547 mmHg 96%
    22:00 +9°C° 1.1 mm 0 mps 547 mmHg 95%
    23:00 +9°C° 1.1 mm 0 mps 547 mmHg 95%

    Tomorrow, 21 July, Sunday

    Time Temperature Precipitation Wind Pressure Humidity
    00:00 +10°C° 0.1 mm 1 mps 547 mmHg 94%
    01:00 +9°C° 0.1 mm 1 mps 546 mmHg 94%
    02:00 +9°C° 0.1 mm 1 mps 546 mmHg 94%
    03:00 +9°C° 0.1 mm 1 mps 546 mmHg 93%
    04:00 +9°C° 0.1 mm 1 mps 546 mmHg 93%
    05:00 +8°C° 0.1 mm 0 mps 546 mmHg 93%
    06:00 +9°C° 0.1 mm 0 mps 547 mmHg 91%
    07:00 +10°C° 0.1 mm 0 mps 548 mmHg 88%
    08:00 +11°C° 0.1 mm 0 mps 549 mmHg 86%
    09:00 +13°C° 0.4 mm 1 mps 550 mmHg 82%
    10:00 +14°C° 0.4 mm 1 mps 550 mmHg 77%
    11:00 +15°C° 0.4 mm 1 mps 551 mmHg 73%
    12:00 +15°C° 0.8 mm 1 mps 550 mmHg 76%
    13:00 +15°C° 0.8 mm 1 mps 550 mmHg 79%
    14:00 +14°C° 0.8 mm 1 mps 549 mmHg 82%
    15:00 +14°C° 0.8 mm 1 mps 549 mmHg 84%
    16:00 +13°C° 0.8 mm 1 mps 548 mmHg 87%
    17:00 +13°C° 0.8 mm 1 mps 548 mmHg 89%
    18:00 +12°C° 0.4 mm 1 mps 548 mmHg 90%
    19:00 +12°C° 0.4 mm 1 mps 548 mmHg 91%
    20:00 +11°C° 0.4 mm 1 mps 548 mmHg 92%
    21:00 +11°C° 0.1 mm 1 mps 548 mmHg 92%
    22:00 +10°C° 0.1 mm 1 mps 548 mmHg 91%
    23:00 +10°C° 0.1 mm 1 mps 548 mmHg 91%

    Day after tomorrow, 22 July, Monday

    Time Temperature Precipitation Wind Pressure Humidity
    00:00 +10°C° 0.1 mm 1 mps 548 mmHg 90%
    01:00 +10°C° 0.1 mm 1 mps 548 mmHg 90%
    02:00 +10°C° 0.1 mm 1 mps 547 mmHg 89%
    03:00 +10°C° 0 mm 1 mps 547 mmHg 89%
    04:00 +10°C° 0 mm 1 mps 547 mmHg 88%
    05:00 +10°C° 0 mm 1 mps 547 mmHg 87%
    06:00 +12°C° 0 mm 1 mps 548 mmHg 83%
    07:00 +13°C° 0 mm 1 mps 549 mmHg 78%
    08:00 +14°C° 0 mm 0 mps 550 mmHg 73%
    09:00 +15°C° 0.5 mm 1 mps 550 mmHg 73%
    10:00 +16°C° 0.5 mm 1 mps 550 mmHg 74%
    11:00 +16°C° 0.5 mm 1 mps 550 mmHg 75%
    12:00 +16°C° 1.6 mm 1 mps 550 mmHg 77%
    13:00 +16°C° 1.6 mm 1 mps 549 mmHg 79%
    14:00 +16°C° 1.6 mm 1 mps 549 mmHg 81%
    15:00 +15°C° 1.5 mm 1 mps 548 mmHg 85%
    16:00 +14°C° 1.5 mm 1 mps 547 mmHg 88%
    17:00 +12°C° 1.5 mm 0 mps 547 mmHg 92%
    18:00 +12°C° 0.6 mm 1 mps 547 mmHg 91%
    19:00 +12°C° 0.6 mm 1 mps 547 mmHg 91%
    20:00 +11°C° 0.6 mm 1 mps 547 mmHg 91%
    21:00 +11°C° 0.1 mm 1 mps 547 mmHg 90%
    22:00 +11°C° 0.1 mm 1 mps 548 mmHg 89%
    23:00 +11°C° 0.1 mm 1 mps 548 mmHg 88%

    23 July, Tuesday

    Time Temperature Precipitation Wind Pressure Humidity
    00:00 +11°C° 0.3 mm 1 mps 548 mmHg 89%
    01:00 +11°C° 0.3 mm 1 mps 547 mmHg 89%
    02:00 +11°C° 0.3 mm 1 mps 547 mmHg 89%
    03:00 +11°C° 0.1 mm 1 mps 547 mmHg 89%
    04:00 +9°C° 0.1 mm 0 mps 547 mmHg 89%
    05:00 +9°C° 0.1 mm 0 mps 547 mmHg 89%
    06:00 +10°C° 0.2 mm 0 mps 547 mmHg 89%
    07:00 +11°C° 0.2 mm 0 mps 548 mmHg 89%
    08:00 +11°C° 0.2 mm 0 mps 549 mmHg 88%
    09:00 +12°C° 0.5 mm 0 mps 549 mmHg 88%
    10:00 +12°C° 0.5 mm 0 mps 549 mmHg 88%
    11:00 +12°C° 0.5 mm 0 mps 549 mmHg 88%
    12:00 +13°C° 1 mm 0 mps 549 mmHg 86%
    13:00 +15°C° 1 mm 1 mps 549 mmHg 83%
    14:00 +16°C° 1 mm 1 mps 549 mmHg 81%
    15:00 +15°C° 1.7 mm 1 mps 548 mmHg 86%
    16:00 +13°C° 1.7 mm 0 mps 547 mmHg 90%
    17:00 +12°C° 1.7 mm 0 mps 547 mmHg 94%
    18:00 +11°C° 3 mm 0 mps 547 mmHg 94%
    19:00 +11°C° 3 mm 1 mps 547 mmHg 95%
    20:00 +11°C° 3 mm 1 mps 547 mmHg 96%
    21:00 +11°C° 0.2 mm 1 mps 547 mmHg 94%
    22:00 +9°C° 0.2 mm 0 mps 547 mmHg 93%
    23:00 +9°C° 0.2 mm 0 mps 547 mmHg 92%

    24 July, Wednesday

    Time Temperature Precipitation Wind Pressure Humidity
    00:00 +9°C° 0 mm 0 mps 547 mmHg 91%
    01:00 +8°C° 0 mm 0 mps 547 mmHg 91%
    02:00 +9°C° 0 mm 1 mps 546 mmHg 91%
    03:00 +9°C° 0 mm 1 mps 546 mmHg 91%
    04:00 +9°C° 0 mm 1 mps 546 mmHg 92%
    05:00 +8°C° 0 mm 1 mps 546 mmHg 92%
    06:00 +10°C° 0 mm 1 mps 547 mmHg 89%
    07:00 +11°C° 0 mm 0 mps 549 mmHg 85%
    08:00 +13°C° 0 mm 0 mps 550 mmHg 81%
    09:00 +15°C° 0.6 mm 1 mps 550 mmHg 80%
    10:00 +16°C° 0.6 mm 1 mps 550 mmHg 78%
    11:00 +16°C° 0.6 mm 1 mps 550 mmHg 77%
    12:00 +16°C° 1.8 mm 1 mps 550 mmHg 79%
    13:00 +16°C° 1.8 mm 1 mps 549 mmHg 81%
    14:00 +16°C° 1.8 mm 1 mps 548 mmHg 83%
    15:00 +14°C° 1.9 mm 0 mps 548 mmHg 86%
    16:00 +13°C° 1.9 mm 0 mps 547 mmHg 89%
    17:00 +12°C° 1.9 mm 0 mps 547 mmHg 92%
    18:00 +11°C° 1.1 mm 0 mps 547 mmHg 93%
    19:00 +11°C° 1.1 mm 1 mps 547 mmHg 94%
    20:00 +11°C° 1.1 mm 1 mps 547 mmHg 94%
    21:00 +10°C° 0.5 mm 1 mps 547 mmHg 95%
    22:00 +10°C° 0.5 mm 1 mps 547 mmHg 95%
    23:00 +9°C° 0.5 mm 1 mps 547 mmHg 95%

    25 July, Thursday

    Time Temperature Precipitation Wind Pressure Humidity
    00:00 +8°C° 0.6 mm 0 mps 547 mmHg 96%
    01:00 +8°C° 0.6 mm 0 mps 546 mmHg 96%
    02:00 +8°C° 0.6 mm 0 mps 546 mmHg 96%
    03:00 +8°C° 0.1 mm 0 mps 546 mmHg 96%
    04:00 +8°C° 0.1 mm 0 mps 546 mmHg 97%
    05:00 +7°C° 0.1 mm 0 mps 546 mmHg 97%
    06:00 +9°C° 0.1 mm 0 mps 547 mmHg 93%
    07:00 +11°C° 0.1 mm 0 mps 548 mmHg 90%
    08:00 +12°C° 0.1 mm 0 mps 549 mmHg 86%
    09:00 +13°C° 1.1 mm 0 mps 549 mmHg 86%
    10:00 +15°C° 1.1 mm 1 mps 549 mmHg 86%
    11:00 +16°C° 1.1 mm 1 mps 550 mmHg 86%
    12:00 +15°C° 1.9 mm 1 mps 549 mmHg 86%
    13:00 +15°C° 1.9 mm 1 mps 548 mmHg 87%
    14:00 +15°C° 1.9 mm 1 mps 548 mmHg 88%
    15:00 +14°C° 2.1 mm 1 mps 547 mmHg 90%
    16:00 +13°C° 2.1 mm 1 mps 547 mmHg 92%
    17:00 +12°C° 2.1 mm 1 mps 546 mmHg 94%
    18:00 +11°C° 1.2 mm 1 mps 546 mmHg 94%
    19:00 +11°C° 1.2 mm 1 mps 546 mmHg 94%
    20:00 +10°C° 1.2 mm 1 mps 546 mmHg 94%
    21:00 +10°C° 0.8 mm 1 mps 547 mmHg 94%
    22:00 +10°C° 0.8 mm 1 mps 547 mmHg 94%
    23:00 +10°C° 0.8 mm 1 mps 547 mmHg 94%
    Show more